Location: Knowlton
(51.2333°N, 1.2667°E)
Time: 04:50:26
(UTC+00:00)

Cosmos 1023 Rocket - Pass Details

Date: 18 April 2021
Orbit: 736 x 772 km, 74.1° (Epoch: 06 May)

Event Time Altitude Azimuth Distance (km) Brightness Sun altitude
Exits shadow 21:12:05 20° 188° (S) 1,660 5.9 -18.4°
Maximum altitude 21:15:34 67° 110° (ESE) 800 4.3 -18.8°
Drops below altitude 10° 21:20:38 10° 29° (NNE) 2,257 7.2 -19.3°
Sets 21:23:00 0° 27° (NNE) 3,187 8.0 -19.6°
